STARLINK-2439

operational
NORAD ID: 48104 Int'l Des: 2021-027 Owner: SPXS Country: US Constellation: starlink
LEOCIRCULARSTARLINK_TYPE

About STARLINK-2439

Description loading...

Live Position

Loading 3D Globe...

Upcoming Passes

Altitude History

Altitude vs Time

uPlot chart will show altitude changes over time

Two-Line Element Set

1 48104U 21027N 25251.44539132 -.00000122 00000-0 10706-4 0 9999
2 48104 53.0543 254.7494 0001482 96.1850 263.9308 15.06389032245164
Epoch: Sep 8, 2025 • Age: 16 hours

Current Status

Altitude 551.1 km
Velocity 7.59 km/s
Sub-Earth Point 45.13°N, 91.31°W
Launch Date Apr 7, 2021
Age 4.4 years
Type internet

Technical Details

Classification Payload
Mass 260.00 kg
Dry Mass 248.00 kg
Total Mass 260.00 kg
Length 0.20 m
Diameter 2.80 m
Span 9.00 m
Shape Box + pan
Manufacturer SPXS
Bus Type Starlink
Phase Status In Orbit
Owner/State SPXS/US

Large Constellations

Loading constellations...